Tracking 26933 objects as of 5-Feb-2023
HD Live streaming from Space Station
objects crossing your sky now

SINE

Track SINE now!
10-day predictions


NORAD ID: 47702
Int'l Code: 2021-015D
Perigee: 463.8 km
Apogee: 476.4 km
Inclination: 97.4 °
Period: 93.9 minutes
Semi major axis: 6841 km
RCS: Unknown
Launch date: February 28, 2021
Source: India (IND)
Launch site: SRIHARIKOTA (SRI)
Your satellite tracking list
Your tracking list is empty




NASA's NSSDC Master Catalog

Two Line Element Set (TLE):
1 47702U 21015D   23036.21281003  .00022577  00000-0  67999-3 0  9996
2 47702  97.4063 117.5662 0009199 343.3208  16.7731 15.34308486107768
Source of the keplerian elements: AFSPC